When you browse on this site, cookies collect data to enhance your experience and personalize the content and advertising you see.
Visit our Privacy Policy to learn more. By continuing to use the site, you agree to this use of cookies and data.
  • In United Kingdom
  • List of Countries
  • For 7 days
  • Water Temperature
  • Weather Map
  • Weather Widgets
  • user-avatar
    Login

    Hourly Weather Bansko

    Today, 20 September, Friday

    Time Temperature Precipitation Wind Pressure Humidity
    00:00 +13°C° 0.4 mm 2 mps 723 mmHg 92%
    01:00 +13°C° 0.4 mm 2 mps 723 mmHg 92%
    02:00 +12°C° 0.4 mm 2 mps 723 mmHg 92%
    03:00 +12°C° 2.1 mm 2 mps 723 mmHg 92%
    04:00 +12°C° 2.1 mm 2 mps 723 mmHg 93%
    05:00 +12°C° 2.1 mm 2 mps 723 mmHg 93%
    06:00 +11°C° 0.3 mm 3 mps 723 mmHg 89%
    07:00 +11°C° 0.3 mm 3 mps 724 mmHg 84%
    08:00 +11°C° 0.3 mm 3 mps 724 mmHg 79%
    09:00 +13°C° 0 mm 3 mps 724 mmHg 70%
    10:00 +14°C° 0 mm 3 mps 724 mmHg 61%
    11:00 +15°C° 0 mm 4 mps 724 mmHg 52%
    12:00 +18°C° 0 mm 4 mps 724 mmHg 46%
    13:00 +19°C° 0 mm 4 mps 724 mmHg 40%
    14:00 +20°C° 0 mm 4 mps 724 mmHg 34%
    15:00 +20°C° 0 mm 4 mps 724 mmHg 33%
    16:00 +19°C° 0 mm 4 mps 724 mmHg 32%
    17:00 +19°C° 0 mm 4 mps 724 mmHg 31%
    18:00 +17°C° 0 mm 3 mps 724 mmHg 36%
    19:00 +15°C° 0 mm 2 mps 724 mmHg 41%
    20:00 +12°C° 0 mm 2 mps 725 mmHg 45%
    21:00 +12°C° 0 mm 2 mps 725 mmHg 47%
    22:00 +11°C° 0 mm 1 mps 725 mmHg 49%
    23:00 +11°C° 0 mm 1 mps 725 mmHg 51%

    Tomorrow, 21 September, Saturday

    Time Temperature Precipitation Wind Pressure Humidity
    00:00 +10°C° 0 mm 1 mps 726 mmHg 52%
    01:00 +10°C° 0 mm 1 mps 726 mmHg 53%
    02:00 +9°C° 0 mm 1 mps 726 mmHg 54%
    03:00 +9°C° 0 mm 1 mps 726 mmHg 55%
    04:00 +9°C° 0 mm 1 mps 726 mmHg 55%
    05:00 +9°C° 0 mm 1 mps 726 mmHg 56%
    06:00 +10°C° 0 mm 1 mps 726 mmHg 52%
    07:00 +10°C° 0 mm 0 mps 726 mmHg 48%
    08:00 +12°C° 0 mm 0 mps 727 mmHg 44%
    09:00 +15°C° 0 mm 1 mps 727 mmHg 39%
    10:00 +18°C° 0 mm 1 mps 727 mmHg 35%
    11:00 +20°C° 0 mm 1 mps 727 mmHg 30%
    12:00 +21°C° 0 mm 1 mps 727 mmHg 28%
    13:00 +22°C° 0 mm 1 mps 726 mmHg 26%
    14:00 +23°C° 0 mm 1 mps 726 mmHg 24%
    15:00 +23°C° 0 mm 1 mps 726 mmHg 24%
    16:00 +22°C° 0 mm 1 mps 726 mmHg 25%
    17:00 +22°C° 0 mm 1 mps 725 mmHg 26%
    18:00 +20°C° 0 mm 1 mps 725 mmHg 31%
    19:00 +16°C° 0 mm 1 mps 725 mmHg 35%
    20:00 +14°C° 0 mm 1 mps 725 mmHg 40%
    21:00 +13°C° 0 mm 1 mps 725 mmHg 42%
    22:00 +13°C° 0 mm 1 mps 725 mmHg 45%
    23:00 +12°C° 0 mm 1 mps 725 mmHg 47%

    Day after tomorrow, 22 September, Sunday

    Time Temperature Precipitation Wind Pressure Humidity
    00:00 +12°C° 0 mm 1 mps 725 mmHg 49%
    01:00 +12°C° 0 mm 1 mps 725 mmHg 50%
    02:00 +10°C° 0 mm 0 mps 725 mmHg 52%
    03:00 +10°C° 0 mm 0 mps 725 mmHg 54%
    04:00 +10°C° 0 mm 0 mps 725 mmHg 55%
    05:00 +10°C° 0 mm 0 mps 725 mmHg 57%
    06:00 +11°C° 0 mm 0 mps 725 mmHg 54%
    07:00 +13°C° 0 mm 0 mps 725 mmHg 51%
    08:00 +14°C° 0 mm 0 mps 725 mmHg 48%
    09:00 +19°C° 0 mm 1 mps 725 mmHg 43%
    10:00 +21°C° 0 mm 1 mps 725 mmHg 39%
    11:00 +23°C° 0 mm 1 mps 725 mmHg 34%
    12:00 +24°C° 0 mm 1 mps 725 mmHg 32%
    13:00 +25°C° 0 mm 1 mps 724 mmHg 31%
    14:00 +26°C° 0 mm 2 mps 724 mmHg 29%
    15:00 +26°C° 0 mm 2 mps 723 mmHg 30%
    16:00 +25°C° 0 mm 1 mps 723 mmHg 32%
    17:00 +25°C° 0 mm 1 mps 722 mmHg 33%
    18:00 +22°C° 0 mm 1 mps 722 mmHg 41%
    19:00 +20°C° 0 mm 1 mps 722 mmHg 48%
    20:00 +16°C° 0 mm 1 mps 722 mmHg 56%
    21:00 +16°C° 0 mm 1 mps 722 mmHg 57%
    22:00 +15°C° 0 mm 1 mps 722 mmHg 59%
    23:00 +15°C° 0 mm 1 mps 722 mmHg 60%

    23 September, Monday

    Time Temperature Precipitation Wind Pressure Humidity
    00:00 +15°C° 0 mm 1 mps 722 mmHg 62%
    01:00 +14°C° 0 mm 1 mps 722 mmHg 63%
    02:00 +14°C° 0 mm 1 mps 722 mmHg 65%
    03:00 +14°C° 0 mm 1 mps 722 mmHg 65%
    04:00 +14°C° 0 mm 1 mps 722 mmHg 65%
    05:00 +14°C° 0 mm 1 mps 722 mmHg 65%
    06:00 +15°C° 0 mm 1 mps 722 mmHg 61%
    07:00 +18°C° 0 mm 1 mps 722 mmHg 57%
    08:00 +19°C° 0 mm 1 mps 721 mmHg 54%
    09:00 +21°C° 0 mm 1 mps 722 mmHg 49%
    10:00 +23°C° 0 mm 2 mps 722 mmHg 45%
    11:00 +25°C° 0 mm 2 mps 722 mmHg 40%
    12:00 +26°C° 0 mm 3 mps 721 mmHg 40%
    13:00 +26°C° 0 mm 3 mps 721 mmHg 40%
    14:00 +26°C° 0 mm 3 mps 720 mmHg 39%
    15:00 +24°C° 0 mm 2 mps 720 mmHg 48%
    16:00 +23°C° 0 mm 2 mps 719 mmHg 56%
    17:00 +21°C° 0 mm 1 mps 719 mmHg 65%
    18:00 +20°C° 0 mm 1 mps 719 mmHg 68%
    19:00 +19°C° 0 mm 1 mps 719 mmHg 70%
    20:00 +18°C° 0 mm 1 mps 718 mmHg 73%
    21:00 +18°C° 0 mm 1 mps 718 mmHg 72%
    22:00 +19°C° 0 mm 1 mps 718 mmHg 71%
    23:00 +19°C° 0 mm 1 mps 718 mmHg 71%

    24 September, Tuesday

    Time Temperature Precipitation Wind Pressure Humidity
    00:00 +19°C° 0 mm 1 mps 718 mmHg 72%
    01:00 +18°C° 0 mm 2 mps 717 mmHg 73%
    02:00 +17°C° 0 mm 2 mps 717 mmHg 74%
    03:00 +17°C° 0 mm 2 mps 717 mmHg 76%
    04:00 +17°C° 0 mm 2 mps 716 mmHg 77%
    05:00 +17°C° 0 mm 2 mps 716 mmHg 79%
    06:00 +17°C° 0.2 mm 2 mps 716 mmHg 78%
    07:00 +18°C° 0.2 mm 2 mps 716 mmHg 77%
    08:00 +20°C° 0.2 mm 1 mps 716 mmHg 77%
    09:00 +20°C° 0.4 mm 2 mps 716 mmHg 75%
    10:00 +20°C° 0.4 mm 2 mps 716 mmHg 73%
    11:00 +21°C° 0.4 mm 3 mps 716 mmHg 71%
    12:00 +22°C° 0.7 mm 3 mps 716 mmHg 67%
    13:00 +24°C° 0.7 mm 3 mps 715 mmHg 64%
    14:00 +25°C° 0.7 mm 3 mps 715 mmHg 60%
    15:00 +24°C° 1.2 mm 2 mps 715 mmHg 64%
    16:00 +24°C° 1.2 mm 1 mps 714 mmHg 67%
    17:00 +23°C° 1.2 mm 1 mps 714 mmHg 71%
    18:00 +21°C° 0.7 mm 1 mps 715 mmHg 76%
    19:00 +20°C° 0.7 mm 1 mps 715 mmHg 80%
    20:00 +18°C° 0.7 mm 1 mps 715 mmHg 85%
    21:00 +17°C° 0.2 mm 2 mps 715 mmHg 87%
    22:00 +16°C° 0.2 mm 2 mps 716 mmHg 89%
    23:00 +16°C° 0.2 mm 2 mps 716 mmHg 92%

    25 September, Wednesday

    Time Temperature Precipitation Wind Pressure Humidity
    00:00 +16°C° 0.1 mm 2 mps 716 mmHg 92%
    01:00 +15°C° 0.1 mm 2 mps 716 mmHg 93%
    02:00 +15°C° 0.1 mm 2 mps 716 mmHg 93%
    03:00 +15°C° 0 mm 2 mps 716 mmHg 93%
    04:00 +14°C° 0 mm 2 mps 716 mmHg 93%
    05:00 +14°C° 0 mm 2 mps 716 mmHg 93%
    06:00 +14°C° 0 mm 2 mps 716 mmHg 91%
    07:00 +15°C° 0 mm 2 mps 717 mmHg 89%
    08:00 +15°C° 0 mm 2 mps 717 mmHg 86%
    09:00 +17°C° 0 mm 2 mps 717 mmHg 80%
    10:00 +18°C° 0 mm 2 mps 718 mmHg 74%
    11:00 +20°C° 0 mm 3 mps 718 mmHg 68%
    12:00 +21°C° 0 mm 3 mps 718 mmHg 63%
    13:00 +23°C° 0 mm 2 mps 718 mmHg 59%
    14:00 +24°C° 0 mm 2 mps 718 mmHg 55%
    15:00 +24°C° 0 mm 2 mps 717 mmHg 55%
    16:00 +24°C° 0 mm 2 mps 717 mmHg 56%
    17:00 +24°C° 0 mm 2 mps 717 mmHg 56%
    18:00 +22°C° 0 mm 1 mps 718 mmHg 63%
    19:00 +20°C° 0 mm 1 mps 718 mmHg 70%
    20:00 +18°C° 0 mm 1 mps 718 mmHg 77%
    21:00 +18°C° 0 mm 1 mps 718 mmHg 80%
    22:00 +16°C° 0 mm 1 mps 718 mmHg 82%
    23:00 +16°C° 0 mm 1 mps 718 mmHg 84%
    Show more